Regional Weather Roundup
Issued by NWS

Home | Current Version | Previous Version | Graphics & Text | Print | Product List | Glossary On
Versions: 1 2 3 4 5 6 7 8 9 10 11 12 13 14 15 16 17 18 19 20 21 22 23 24 25 26 27 28 29 30 31 32 33 34 35 36 37 38 39 40 41 42 43 44 45 46 47 48 49 50
000
ASUS43 KFSD 010110
RWRSD

WEATHER ROUNDUP FOR SOUTH DAKOTA
NATIONAL WEATHER SERVICE SIOUX FALLS SD
800 PM CDT THU JUL 31 2014

NOTE: "FAIR" INDICATES FEW OR NO CLOUDS BELOW 12,000 FEET WITH NO
SIGNIFICANT WEATHER AND/OR OBSTRUCTIONS TO VISIBILITY.


SDZ001>005-009-010-012>017-010200-
NORTHWEST AND NORTH CENTRAL SOUTH DAKOTA

CITY           SKY/WX    TMP DP  RH WIND       PRES   REMARKS
BUFFALO          N/A     80  48  32 S9        30.01F
FAITH            N/A     84  51  31 E8        30.06S
MOBRIDGE       SUNNY     81  58  45 E5        30.00F
$$

SDZ012>016-024>037-041>051-057-063-072>074-010200-
SOUTHWEST AND SOUTH CENTRAL SOUTH DAKOTA

CITY           SKY/WX    TMP DP  RH WIND       PRES   REMARKS
RAPID CTY ARPT MOSUNNY   81  54  39 W7        30.10S
PIERRE         SUNNY     82  58  43 E13       30.00F
CUSTER         PTSUNNY   66  53  63 CALM      30.26F
ELLSWORTH AFB  MOSUNNY   83  53  34 SW8       30.10S
PHILIP         SUNNY     87  49  26 NE8       30.03S
PINE RIDGE     MOSUNNY   78  53  41 N3        30.12S
WINNER         FAIR      83  54  36 E8        30.03S
$$

SDZ004>011-016>023-039-040-010200-
NORTHEAST SOUTH DAKOTA

CITY           SKY/WX    TMP DP  RH WIND       PRES   REMARKS
ABERDEEN       CLEAR     76  60  57 E3        30.03S
WATERTOWN      CLEAR     74  55  51 N6        30.04S
SISSETON         N/A     76  67  73 CALM      30.01S
$$

SDZ017-020-022-023-036>040-048>070-010200-
SOUTHEAST SOUTH DAKOTA

CITY           SKY/WX    TMP DP  RH WIND       PRES   REMARKS
SIOUX FALLS    PTCLDY    71  61  70 VRB5      30.04S
HURON          CLEAR     78  55  44 NE6       30.02S
CHAMBERLAIN    CLEAR     79  57  45 E7        30.03S
MITCHELL       PTCLDY    78  63  59 E7        30.02F
YANKTON        CLEAR     73  61  64 SE5       30.04F
$$

ABBREVIATIONS USED IN REMARKS
   TC - TEMPERATURE IN CELSIUS
  WCI - WIND CHILL INDEX
   HX - HEAT INDEX
  VSB - VISIBILITY



USA.gov is the U.S. government's official web portal to all federal, state and local government web resources and services.